RH
64 66 67 68 72 82 94 98 97 99 99 95 93 91 90 90 90 90 91 90 90 91 92 92 92 93 94 94 95 96 96 96 96 96 97 98 98 99 99 99 99 99 100 100 99 100 99 99 98 99 100 98 98 99 98 98 99 96 96 94 92 92 89 86 93 101 101 95 88 83 81 78 71 62 54 49 44 40 36 32 29 26 23 20 18
67 68 69 72 74 81 93 98 98 99 98 96 94 93 92 91 91 92 91 91 91 91 92 92 92 93 95 95 96 96 96 97 96 97 97 97 98 98 98 99 99 99 99 99 98 99 99 97 97 98 99 97 96 97 97 96 97 95 94 94 92 90 89 86 90 99 102 95 88 83 77 70 64 55 47 42 37 32 30 27 23 21 19 17 15
68 69 71 74 77 82 91 96 99 99 97 97 96 94 93 92 92 92 92 92 92 92 92 92 92 93 94 95 96 97 97 96 97 98 98 98 98 98 98 98 98 98 98 98 97 98 96 94 95 95 95 94 93 93 94 93 94 93 93 94 93 91 90 86 86 92 98 94 87 81 74 65 56 47 39 35 31 27 25 23 21 19 17 15 14
69 71 73 75 78 83 88 93 98 99 98 99 98 96 95 93 93 92 93 93 92 93 93 92 92 93 94 95 96 96 97 97 98 99 99 100 100 99 99 99 98 97 96 96 96 94 93 91 92 91 90 88 86 87 87 87 87 88 89 91 91 89 86 82 81 84 88 88 82 76 68 56 46 40 35 31 28 27 26 22 19 17 16 15 14
70 71 72 74 77 81 84 89 94 97 99 99 98 97 96 94 93 93 93 93 92 92 92 91 92 93 94 94 95 97 98 98 99 99 100 101 100 100 100 98 97 96 94 94 93 91 90 88 87 86 83 80 78 78 78 77 78 78 79 80 81 80 74 71 76 79 78 78 74 67 57 48 41 38 34 28 24 23 23 20 18 16 13 12 12
71 70 70 71 73 78 83 88 93 95 97 98 97 98 96 94 93 93 93 92 91 92 92 92 93 94 95 96 96 98 99 99 99 99 100 100 99 99 98 97 95 94 92 91 89 87 86 84 82 79 76 73 71 70 69 67 66 65 66 67 68 66 64 66 71 71 66 64 60 54 48 44 41 38 35 29 26 26 21 15 14 15 14 11 11
70 69 69 71 74 80 85 89 92 94 96 97 97 98 97 95 94 93 92 92 91 92 92 92 95 95 96 98 98 99 99 99 99 99 99 99 98 97 96 95 93 91 90 88 85 83 81 78 76 72 69 68 66 64 62 59 57 56 56 57 57 55 55 58 57 52 49 46 45 45 45 44 42 41 38 31 28 32 30 23 19 14 13 14 14
70 71 72 75 79 84 87 90 93 94 95 96 97 98 97 95 94 93 92 92 91 92 92 93 95 96 97 99 99 99 99 98 98 97 98 97 97 96 95 93 91 88 86 84 80 78 75 72 70 67 65 63 61 59 57 54 52 50 50 49 47 44 44 44 41 38 37 36 40 44 45 48 50 47 41 37 40 44 44 48 46 29 18 18 19
74 76 76 79 83 86 88 90 92 94 94 94 97 98 97 95 93 92 92 92 91 91 92 94 96 97 98 99 99 98 98 98 96 96 97 96 96 95 92 90 88 85 82 79 76 74 71 68 67 65 63 61 59 57 55 52 50 47 47 46 42 40 39 37 36 35 34 36 43 47 53 68 78 74 68 70 73 67 56 59 58 37 23 23 24
78 79 79 82 84 86 88 90 92 94 93 93 96 97 96 94 92 92 92 92 92 91 92 94 96 98 100 99 98 97 97 95 94 93 94 95 95 93 90 88 85 82 80 76 73 71 68 66 64 62 60 57 54 52 50 48 46 45 44 43 40 39 38 36 37 36 36 46 55 57 67 88 99 98 96 92 86 74 65 65 58 39 32 34 32
80 80 81 84 85 86 87 90 92 93 93 94 96 96 95 93 91 91 92 92 92 92 93 95 97 99 99 98 96 95 93 93 93 94 93 93 94 91 87 85 83 80 78 74 70 68 65 62 60 57 54 51 49 47 46 44 43 42 41 40 38 38 35 34 38 38 41 57 72 76 83 93 97 101 101 94 85 77 71 69 61 51 54 60 55
81 82 83 85 85 86 88 90 91 92 94 96 96 96 94 92 91 91 92 92 92 93 94 96 98 98 97 96 95 93 92 94 97 99 95 91 91 90 86 83 81 77 74 71 67 65 61 58 56 54 52 50 48 46 45 44 43 41 40 38 37 37 37 37 40 44 51 66 82 91 95 94 94 98 100 94 85 76 68 61 55 52 57 65 63
82 84 84 85 86 87 89 90 91 92 95 96 97 95 93 92 92 91 91 91 92 94 96 97 98 97 96 95 92 92 95 99 100 101 98 90 87 88 85 80 77 74 71 68 65 62 60 57 54 52 50 48 46 45 44 43 42 40 39 38 36 37 42 47 53 58 62 71 83 94 99 98 97 99 100 96 86 77 69 56 45 42 45 51 53
82 83 84 85 87 88 90 90 91 93 95 97 97 95 94 93 92 92 92 92 93 95 98 98 97 96 94 91 91 95 99 101 99 101 101 92 84 83 82 77 74 72 69 67 64 60 58 55 51 49 48 47 46 46 44 43 43 41 39 37 37 40 47 60 77 83 80 83 90 95 96 97 98 99 98 96 89 79 66 49 38 41 44 46 46
81 82 83 85 86 88 89 89 91 92 95 97 97 95 94 93 93 93 93 93 95 96 98 99 96 94 91 90 93 98 100 101 99 100 101 94 83 80 79 75 73 71 67 64 60 57 55 53 50 48 47 47 48 47 46 45 43 41 41 39 39 42 46 62 89 101 96 95 98 98 95 96 100 103 102 100 87 67 53 45 44 48 46 42 41
80 80 81 83 85 86 87 88 90 92 94 97 97 95 94 94 94 94 94 94 96 96 98 98 94 92 92 94 98 100 99 100 100 100 100 93 83 80 79 76 72 67 62 59 56 54 52 50 48 46 45 48 56 62 63 61 54 47 44 43 42 43 44 57 84 101 100 101 103 100 92 84 80 83 92 95 74 50 46 49 48 50 50 48 47
77 78 79 81 83 85 86 87 89 91 93 96 97 96 95 96 96 95 95 96 96 97 98 96 93 93 95 98 100 99 100 100 100 101 97 86 79 80 77 72 67 60 56 56 54 52 50 47 45 44 43 48 59 72 79 81 78 67 54 47 47 47 46 51 65 73 73 74 73 67 58 50 44 47 60 70 59 45 50 53 51 57 63 67 69
75 77 78 81 83 84 86 87 88 90 92 94 97 97 96 97 97 95 96 97 97 98 98 95 95 96 98 100 100 99 101 100 99 101 93 78 74 76 72 66 61 56 55 54 51 50 47 45 43 41 40 42 54 75 90 91 93 90 73 56 49 48 46 43 43 44 42 41 41 40 39 40 41 43 46 51 51 50 54 58 61 68 73 79 87
74 77 78 81 84 84 85 87 87 89 90 92 97 99 98 98 98 96 96 97 98 100 99 97 98 100 100 100 100 100 101 99 100 102 89 72 70 71 66 62 58 55 54 51 49 47 43 43 41 38 41 48 60 85 101 98 98 102 91 69 53 48 45 37 32 32 32 34 39 42 44 46 46 48 49 50 54 57 59 65 69 71 73 78 85
75 77 79 81 83 84 85 86 86 87 89 92 97 100 100 100 99 98 98 98 99 101 100 99 101 101 101 101 99 100 100 98 100 101 85 67 67 68 63 61 58 55 53 50 47 44 41 41 37 36 55 74 83 93 101 99 100 101 92 74 55 45 44 37 29 29 32 38 44 45 48 51 51 53 56 56 60 62 63 67 69 67 72 75 78
76 77 78 80 82 84 85 85 86 87 90 94 99 101 101 100 99 99 99 99 101 102 102 102 102 100 100 100 99 101 100 96 99 99 81 63 63 65 61 59 57 53 50 47 44 41 40 37 33 43 72 95 98 98 100 100 100 94 90 82 61 46 47 40 30 32 38 43 48 49 50 55 55 57 60 59 62 63 61 64 65 64 69 73 77
76 78 79 80 82 84 85 86 86 88 90 94 100 102 102 101 100 101 102 102 103 103 103 102 100 100 101 100 99 102 99 92 90 87 70 57 58 59 55 53 51 47 45 43 40 39 39 36 35 50 79 95 98 100 99 96 92 86 88 89 71 53 48 39 31 38 45 46 50 51 52 54 53 54 56 55 56 59 58 59 61 62 66 68 73
76 78 79 81 83 85 86 87 88 89 91 96 101 103 103 101 100 101 102 102 102 102 102 101 100 100 100 99 101 103 95 84 79 72 60 53 54 53 50 48 46 44 44 43 41 39 40 38 35 46 71 90 96 95 88 83 76 68 67 67 56 44 39 35 37 46 49 48 49 50 51 53 52 50 50 48 50 54 57 59 59 59 61 61 62
76 78 80 83 85 87 89 90 91 92 95 99 103 103 102 101 100 100 100 100 101 100 100 100 100 100 100 100 102 99 88 79 75 66 55 53 53 51 49 47 45 44 44 44 44 42 42 42 39 39 53 69 75 71 67 65 59 50 46 44 39 35 35 39 47 50 48 49 50 49 51 54 53 52 51 50 52 55 56 57 56 54 54 52 49
77 80 84 87 89 91 92 93 94 95 98 102 104 102 100 100 100 100 100 100 100 101 100 100 100 100 100 102 100 93 86 82 77 65 56 55 55 52 48 46 44 43 43 44 45 45 44 44 43 41 42 46 47 46 47 47 44 42 41 37 33 34 41 48 53 51 50 51 51 49 51 53 53 55 55 54 54 55 53 51 48 47 47 43 35
79 82 86 90 93 95 96 95 96 98 101 103 104 102 101 100 100 100 101 100 100 100 100 100 100 99 101 103 100 94 91 91 86 74 63 58 55 52 49 46 44 43 44 44 44 44 44 44 43 42 42 41 40 40 41 41 41 40 36 33 33 41 51 55 54 53 53 53 52 51 51 51 52 53 55 55 54 54 53 47 40 38 42 43 36
83 84 88 93 96 97 98 98 98 100 102 103 102 101 101 102 102 102 102 100 100 101 100 100 101 100 100 103 102 99 97 97 96 90 79 67 59 53 49 48 49 50 52 54 52 44 40 41 41 42 43 43 43 43 42 40 38 34 32 34 42 51 57 56 55 56 56 54 53 52 51 51 51 51 52 53 51 51 52 50 46 41 43 49 46
86 87 91 94 97 98 100 100 101 102 102 101 100 99 99 101 102 102 100 98 98 98 98 99 99 98 99 102 103 103 101 101 100 96 88 79 69 58 50 50 60 68 71 73 73 63 49 41 39 40 42 43 44 43 39 35 32 32 35 42 51 57 58 58 57 58 57 56 55 53 51 50 50 49 50 49 47 48 50 51 53 52 52 60 64
89 91 93 96 98 101 102 102 103 103 102 100 99 99 98 99 99 98 98 96 95 94 94 95 95 95 97 99 101 101 100 98 95 93 89 85 81 74 62 54 60 76 84 86 87 83 71 55 42 38 40 43 43 41 36 31 30 34 41 49 55 58 59 60 59 57 57 57 56 54 53 51 49 49 50 45 41 44 48 52 57 58 60 68 76
93 94 96 97 100 103 103 102 101 101 101 100 100 100 100 100 101 100 99 99 98 97 97 96 96 97 98 97 98 98 95 92 92 93 92 89 88 87 80 66 60 70 82 87 89 90 87 77 60 45 39 41 43 41 37 32 31 37 46 53 56 57 57 58 58 57 56 57 56 56 55 54 52 52 52 47 40 38 42 50 57 63 69 78 84
97 97 97 99 101 103 104 102 100 100 100 100 100 100 101 101 102 101 101 102 102 102 102 101 101 101 100 99 99 99 98 96 95 95 95 93 91 91 91 85 75 69 74 85 92 93 92 89 77 57 42 39 42 42 38 34 34 39 47 52 53 55 56 56 56 56 56 56 57 57 56 56 55 53 53 53 47 39 38 44 52 62 72 84 92
101 99 100 101 101 103 104 103 100 100 100 100 100 100 100 101 101 100 101 102 101 101 102 102 101 100 101 101 101 101 101 100 98 97 96 96 95 93 93 95 91 83 82 90 96 95 92 91 86 71 50 39 41 44 40 35 35 39 45 50 51 52 55 55 54 55 57 57 57 57 56 57 56 53 52 56 55 49 44 46 51 61 73 83 90
103 102 103 103 102 103 103 103 102 101 100 100 101 100 100 100 99 98 99 100 99 99 101 101 100 100 101 101 101 102 101 100 100 100 98 98 99 97 96 98 99 96 97 100 99 97 95 93 91 80 58 41 41 45 42 37 36 39 45 51 53 52 53 55 56 56 58 59 58 57 57 56 56 54 53 54 58 59 58 56 58 68 81 89 90
102 102 101 101 101 101 102 102 102 101 100 101 102 101 101 100 99 99 100 100 100 100 101 101 101 100 100 100 101 102 101 100 100 100 100 100 101 99 100 102 102 101 103 103 102 101 99 95 92 84 62 43 41 45 43 38 37 42 48 54 55 53 54 55 56 57 58 58 56 55 55 55 56 57 55 54 57 62 63 63 69 80 91 97 97
100 100 100 100 100 100 100 101 102 102 101 101 101 101 101 101 100 100 101 101 100 99 98 99 100 100 100 100 100 101 101 100 100 99 98 100 102 102 101 103 102 101 101 100 99 99 97 93 90 79 57 42 42 46 43 40 40 45 51 55 55 54 54 53 55 56 56 55 54 53 53 53 54 58 61 61 63 65 65 68 78 89 95 100 102
100 100 100 100 100 100 100 101 101 102 102 101 101 102 102 102 101 101 100 100 101 100 99 98 99 100 100 100 100 101 101 102 102 100 99 100 102 103 102 101 100 100 100 100 99 97 94 93 88 70 48 40 44 46 43 41 43 47 53 56 56 55 54 53 54 55 54 53 53 52 52 52 53 57 64 66 66 68 73 79 87 92 95 100 103
101 101 100 100 100 100 100 101 101 102 102 102 103 104 104 102 101 100 100 100 101 102 102 101 101 102 101 100 100 101 102 103 103 102 101 101 102 101 100 100 99 98 98 97 97 96 95 91 80 60 43 40 45 45 42 41 42 46 53 58 58 56 55 53 54 55 54 52 52 52 51 51 51 56 66 70 68 69 76 84 92 94 91 94 100
101 100 100 100 100 100 100 100 101 101 102 102 102 102 103 103 101 100 100 100 101 102 103 102 101 102 102 100 100 101 102 102 102 101 101 102 102 101 100 100 100 100 98 96 95 94 88 75 59 46 41 43 46 45 42 40 42 47 55 59 58 56 55 54 54 54 54 52 51 51 50 49 49 55 67 74 75 76 79 85 92 94 89 88 95
101 101 101 101 100 100 100 100 100 101 102 103 101 101 102 103 102 100 100 101 101 102 103 103 102 102 101 100 101 102 102 102 101 100 101 102 101 101 101 100 100 101 100 97 92 84 70 54 42 39 42 45 46 46 42 39 43 52 59 61 59 55 54 53 52 52 52 51 50 48 48 47 48 54 63 69 74 79 81 81 84 91 95 94 94
101 102 102 101 100 100 100 100 100 101 101 102 101 101 101 102 101 100 100 101 101 102 103 103 103 102 101 100 100 101 102 102 101 100 100 101 101 101 101 100 99 98 95 88 79 66 53 43 39 40 43 45 46 45 41 41 48 57 62 63 60 55 52 51 50 49 49 49 48 46 45 45 47 50 54 58 65 74 78 76 76 84 95 99 98
101 101 101 101 101 100 100 100 100 100 101 101 101 101 101 101 101 100 100 101 102 102 102 102 102 101 101 100 99 100 101 101 100 98 98 98 98 98 97 95 93 90 84 76 66 55 46 42 41 42 45 46 45 42 41 44 53 61 64 63 59 53 49 48 47 47 47 46 44 43 42 42 45 47 49 52 57 63 66 70 77 86 93 96 98
101 100 100 100 101 100 100 100 100 101 102 101 100 101 101 101 101 101 101 102 102 102 102 102 101 101 101 100 100 100 100 100 99 97 95 95 94 92 90 89 86 81 75 69 60 52 45 42 42 44 45 44 43 41 42 48 58 63 64 61 56 50 46 44 43 44 44 42 41 41 40 39 43 47 49 51 54 57 61 70 81 90 94 96 97
98 99 99 100 101 100 100 100 101 103 104 102 100 101 102 101 101 101 101 101 102 102 102 103 102 101 101 100 100 101 102 101 100 97 93 91 89 87 85 83 79 75 71 65 56 48 43 42 43 45 44 43 42 41 43 51 59 63 63 59 53 46 42 41 40 40 41 40 39 39 40 41 44 49 51 52 55 61 69 79 89 93 95 97 98
96 97 98 99 100 100 100 100 101 102 103 102 101 101 101 101 101 101 101 101 102 101 102 103 103 101 101 100 101 102 103 102 99 96 93 90 87 84 82 79 76 72 67 59 50 43 41 42 43 44 44 43 42 42 45 54 61 64 62 58 51 44 40 39 38 39 40 41 39 40 44 48 51 54 56 58 64 72 80 88 93 95 96 98 100
97 98 99 99 100 100 100 101 101 101 101 101 101 101 101 101 101 101 102 102 102 102 102 102 103 102 102 101 101 102 102 101 99 96 93 89 86 83 80 77 74 69 60 51 44 40 40 42 44 45 44 43 42 43 47 55 61 63 62 57 51 44 39 39 41 42 43 45 47 51 56 59 60 61 63 66 74 84 90 92 94 97 98 99 101
98 99 99 100 100 100 100 101 101 100 100 100 100 100 101 101 101 102 102 102 102 102 102 102 102 103 103 102 101 101 101 99 97 95 92 89 87 84 80 76 72 65 55 45 41 40 42 44 45 45 43 42 41 43 48 55 60 62 60 56 51 46 45 47 49 50 51 56 61 66 68 68 66 67 70 73 80 88 92 91 93 97 100 101 101
99 100 100 100 100 101 101 101 101 101 100 100 101 101 101 101 101 102 102 102 102 103 102 102 103 103 102 102 101 100 98 96 94 92 90 87 85 82 78 74 68 60 50 43 40 42 43 44 45 45 43 42 41 43 48 55 59 60 58 56 54 54 55 57 59 59 61 66 70 71 72 72 70 70 73 78 83 88 90 90 93 97 99 100 101
98 100 101 101 101 101 101 101 101 101 101 101 102 102 103 103 103 102 102 103 103 103 103 103 103 103 102 102 101 99 96 94 92 89 86 83 78 74 69 63 57 50 44 41 41 43 44 44 44 44 43 42 42 44 49 55 58 58 57 58 60 62 63 63 63 64 67 69 71 71 72 72 72 73 76 80 84 87 90 93 94 96 98 100 101
98 99 101 102 102 101 101 101 102 102 103 103 103 103 104 104 104 103 103 103 103 103 103 103 103 103 102 101 100 98 95 92 89 85 80 74 68 63 58 52 48 44 42 42 43 43 42 43 43 44 44 43 43 45 50 55 57 58 60 62 64 65 65 65 65 67 68 70 70 71 72 73 74 76 78 79 81 86 91 93 95 97 100 102 103
97 98 100 102 103 103 103 103 104 104 104 104 104 104 104 104 103 103 104 104 103 103 103 103 102 102 102 100 99 97 93 90 86 82 76 69 62 56 52 48 45 43 42 42 42 41 41 42 43 44 43 43 44 47 52 56 59 61 63 64 64 64 64 65 66 67 69 70 70 71 72 74 76 77 77 76 79 85 91 93 96 99 103 103 102
95 96 98 100 103 104 104 104 104 104 104 103 103 104 104 103 103 103 103 104 103 102 102 103 102 102 101 100 98 95 91 88 84 79 72 64 58 52 47 45 43 41 41 41 40 39 40 41 43 43 43 43 44 48 53 58 62 64 65 64 63 63 64 66 67 67 68 70 71 72 73 75 77 75 73 72 77 84 90 92 95 100 103 103 103
Wind_Speed
8 9 10 11 11 10 8 8 9 9 10 11 12 12 13 13 13 13 14 14 14 14 14 14 14 15 15 15 15 15 14 14 14 13 13 12 11 10 10 9 9 8 8 7 6 6 6 5 5 5 5 4 5 5 4 4 3 2 2 2 3 5 6 9 10 7 6 6 6 4 2 2 4 5 4 4 6 7 8 9 9 10 10 11 10
7 8 9 10 11 10 9 8 8 9 9 10 11 12 12 13 13 13 13 13 14 13 13 13 14 14 14 14 14 14 14 13 12 12 11 10 9 9 8 8 7 7 7 6 7 7 6 6 7 7 6 5 6 6 5 5 4 3 4 4 5 7 5 7 11 9 7 7 6 4 1 2 3 5 6 6 6 7 8 9 9 9 10 12 12
7 7 8 9 9 9 8 8 8 9 9 9 10 11 12 12 13 13 13 13 13 13 13 13 13 13 13 13 13 13 13 12 11 11 10 9 8 7 7 6 6 6 6 6 7 7 7 8 8 8 7 7 8 8 7 7 6 5 6 5 6 7 5 6 8 9 10 9 6 3 1 2 4 6 7 7 7 8 9 9 9 9 10 12 13
7 7 7 8 8 7 7 8 8 9 9 9 10 11 12 12 13 13 12 13 12 12 12 12 12 12 12 12 12 12 11 11 10 9 8 8 7 6 6 5 5 5 6 6 7 7 8 9 9 9 8 9 10 10 10 9 9 8 8 8 8 8 8 7 5 8 13 11 6 3 2 3 4 6 8 7 6 7 9 10 10 8 9 11 13
7 7 7 7 7 7 7 7 8 9 9 9 9 10 11 12 12 12 12 12 12 12 12 11 11 11 10 10 11 10 10 9 9 8 7 6 6 6 5 5 5 6 7 7 8 8 9 10 10 9 8 10 12 12 11 11 11 11 11 11 10 8 8 8 7 9 14 13 9 5 3 4 4 6 8 9 7 7 9 9 9 10 11 12 13
8 8 8 7 7 7 7 6 7 8 9 8 8 9 11 11 12 12 11 12 12 11 11 11 10 10 9 9 9 9 9 8 8 7 6 5 5 5 5 5 6 6 7 8 9 9 10 10 10 9 9 11 12 12 12 11 12 12 13 12 10 9 10 11 11 12 13 13 11 8 6 6 6 8 10 12 10 10 13 11 10 12 15 16 13
9 8 8 8 7 6 6 5 5 7 8 8 8 9 10 11 11 11 11 11 11 11 10 10 9 9 9 8 8 8 7 7 7 6 6 5 5 5 4 5 6 7 8 9 9 10 10 10 10 10 11 12 12 12 12 11 12 13 14 13 11 11 13 14 13 13 13 13 12 9 8 8 9 9 11 13 11 13 18 18 17 18 21 21 14
11 9 8 7 7 6 5 5 5 5 8 9 9 9 9 10 10 10 11 11 11 10 10 9 9 8 8 8 7 7 6 6 6 5 5 4 4 4 4 5 6 7 8 9 9 10 10 10 10 10 11 11 11 11 11 11 11 13 13 12 10 11 13 13 12 13 13 13 12 10 9 10 11 12 13 15 14 15 19 22 22 24 27 23 13
11 10 9 8 7 6 6 5 5 5 7 8 9 9 9 9 10 10 10 10 10 10 9 8 8 7 7 7 6 6 5 5 5 4 4 3 2 3 4 5 6 7 8 9 9 10 10 10 11 10 10 10 10 10 11 10 11 12 13 11 10 10 12 12 12 12 12 12 12 11 11 12 14 15 16 17 16 17 19 22 23 26 30 25 13
12 10 9 8 7 6 6 6 5 5 6 8 9 9 8 9 9 10 9 9 9 9 8 7 7 6 6 5 5 4 3 3 3 4 4 3 2 2 4 5 6 7 8 9 9 9 10 10 10 10 9 10 10 10 10 11 11 12 12 12 11 10 10 11 12 11 11 13 12 11 13 13 13 15 15 15 16 17 20 23 24 27 31 26 17
12 10 9 8 7 7 6 6 6 6 6 7 7 8 8 8 9 9 9 9 9 8 7 6 5 5 4 3 3 2 1 2 3 4 4 3 1 2 4 5 6 7 7 8 9 9 9 9 10 10 9 10 10 10 10 11 11 11 11 11 11 11 10 11 11 10 11 12 12 12 12 12 12 13 14 15 16 18 20 21 23 26 25 20 16
11 10 10 8 7 7 6 6 6 6 6 7 7 7 7 7 8 8 8 9 8 7 6 4 4 3 2 2 1 1 2 4 5 3 3 2 1 2 3 5 6 7 7 7 8 8 9 9 9 9 9 9 9 9 10 10 10 11 11 11 11 11 11 11 11 11 11 11 11 11 11 11 12 13 14 15 16 18 20 20 21 22 21 18 17
11 10 9 9 8 7 6 6 6 6 6 6 7 6 6 7 7 8 8 8 7 6 4 3 3 2 1 1 1 2 4 7 7 2 2 2 1 2 3 5 6 6 7 7 7 8 8 8 8 8 9 9 9 9 9 9 10 10 10 10 10 10 11 11 11 11 10 10 10 10 10 11 12 13 13 14 16 19 20 22 22 21 22 21 22
10 10 9 8 8 6 6 6 6 6 6 6 7 6 6 6 7 7 7 7 6 5 4 3 2 2 2 2 3 4 6 10 9 5 2 1 1 2 4 5 6 6 6 7 7 7 7 6 6 7 8 9 9 9 9 9 9 9 9 9 9 9 9 11 12 11 9 9 9 8 8 9 11 13 13 13 15 17 20 22 22 23 25 25 27
9 9 9 8 7 7 6 6 6 6 6 6 6 6 6 6 6 7 7 6 6 4 3 2 2 2 3 4 5 6 8 10 8 7 6 3 2 3 4 5 6 6 7 7 6 7 7 6 5 6 7 9 9 9 9 9 8 8 8 8 8 7 6 9 12 12 10 9 9 8 8 8 10 12 13 15 16 17 18 20 20 22 25 27 29
9 9 9 8 7 7 7 6 6 6 6 6 6 6 6 6 6 6 6 6 5 4 3 3 3 4 5 6 7 8 9 8 7 9 8 3 2 4 5 5 6 7 7 8 7 6 6 6 5 5 6 8 9 10 10 9 8 7 7 7 7 6 5 6 8 7 7 7 6 7 7 8 9 9 11 14 17 18 17 18 19 20 24 28 29
8 8 8 8 8 7 7 7 7 7 7 7 6 6 6 6 6 6 6 5 5 4 4 4 4 6 7 8 9 8 8 7 9 11 8 5 3 5 6 6 7 8 8 8 7 7 6 6 6 5 5 6 8 9 9 9 9 8 6 6 6 5 4 3 3 2 2 3 5 7 9 10 11 9 9 12 16 17 16 16 18 18 20 21 21
8 8 8 8 8 7 7 7 7 7 7 7 6 6 6 6 6 6 6 5 5 5 5 5 6 8 8 9 9 8 9 10 12 10 6 5 3 5 6 6 8 8 8 8 7 7 6 6 6 5 5 5 5 5 4 7 9 8 7 5 4 3 3 2 2 2 4 5 6 8 9 10 10 10 10 11 13 14 14 15 17 17 18 15 14
8 8 8 8 8 8 8 8 8 8 8 7 7 7 7 7 7 6 6 6 6 6 7 7 8 8 9 9 9 10 12 13 11 8 5 4 3 4 5 6 7 7 8 7 7 6 5 5 5 5 5 5 4 3 4 9 9 8 7 6 5 3 2 3 5 5 5 6 7 8 9 10 10 10 10 11 11 13 13 14 16 17 18 17 16
8 9 9 8 9 9 8 8 8 8 8 7 7 7 7 8 7 7 7 7 7 8 8 9 9 9 9 9 10 12 13 12 9 6 4 3 3 4 4 5 6 6 7 6 6 6 5 4 5 6 6 5 4 4 4 8 7 6 8 8 6 3 4 7 9 9 9 9 9 10 10 10 9 9 9 10 10 12 13 14 16 17 17 19 19
8 9 9 9 9 9 9 9 9 8 8 7 7 7 8 8 8 8 8 8 9 9 9 10 10 10 10 10 11 13 12 9 7 6 5 4 4 5 4 4 4 5 6 5 5 5 4 4 5 6 7 6 6 6 2 4 4 4 7 9 7 7 9 11 11 10 11 11 11 11 10 8 8 7 8 9 9 11 12 13 15 17 17 18 19
9 9 10 10 10 10 10 9 9 8 8 8 8 8 8 9 8 8 9 9 10 10 11 11 12 12 11 11 13 13 10 8 7 6 5 4 5 5 4 4 4 4 4 5 5 4 4 5 6 7 8 7 7 3 3 5 4 4 5 7 10 11 12 12 11 11 12 12 12 10 9 8 7 7 7 8 9 11 12 13 14 16 17 19 19
9 9 9 9 9 10 10 10 9 9 8 8 8 8 9 10 9 9 10 11 11 12 12 12 13 13 13 13 13 12 10 8 7 6 5 5 6 6 5 5 5 4 3 3 4 4 4 4 5 7 8 6 2 3 6 6 6 6 7 9 12 12 11 11 11 11 12 13 12 11 9 9 9 9 9 10 11 12 14 14 15 16 18 20 21
9 8 8 8 9 10 10 10 10 9 9 9 9 9 10 10 11 11 11 12 13 13 14 14 15 15 15 15 13 11 10 9 7 6 6 7 6 6 6 6 6 5 4 3 3 3 3 3 4 6 9 8 7 7 7 7 9 10 11 11 11 11 10 11 11 12 13 13 13 11 10 10 12 12 13 14 14 16 17 17 18 18 19 22 24
8 8 8 8 8 9 10 10 9 9 9 9 10 10 11 12 12 13 13 14 15 15 15 16 16 17 17 16 15 12 11 10 8 7 7 8 7 7 7 6 6 5 4 4 3 2 3 3 4 5 8 10 11 10 10 11 12 12 11 10 10 10 10 11 12 13 13 14 14 13 12 12 13 14 15 17 17 18 20 21 21 22 23 25 28
8 8 8 8 8 9 10 10 10 10 10 10 10 11 12 13 14 15 15 16 16 16 17 17 18 18 18 17 16 15 13 12 11 9 8 8 9 9 8 7 6 5 4 3 3 2 3 4 4 5 7 9 10 11 11 11 11 11 10 10 10 10 11 12 12 13 14 15 15 15 14 14 15 15 16 18 18 19 21 23 25 26 26 29 32
8 8 8 8 9 10 10 10 11 11 11 11 11 12 13 14 15 17 17 18 18 18 18 18 19 19 19 18 17 16 15 15 13 12 11 11 10 10 9 8 7 5 4 2 1 1 2 3 4 5 6 7 8 9 10 10 10 10 10 10 11 11 12 12 12 13 14 15 16 16 16 16 16 17 18 19 20 20 22 24 27 28 30 31 34
8 8 8 9 9 10 10 11 11 11 12 12 13 14 15 16 18 19 19 18 18 19 19 20 21 22 21 20 19 18 18 18 17 16 14 13 12 11 11 10 8 5 3 1 1 1 2 3 3 4 5 7 8 8 9 9 9 10 10 11 11 12 12 12 12 13 14 16 16 17 17 17 18 19 20 22 23 23 24 26 27 29 31 31 32
8 9 9 9 10 10 11 12 12 12 13 13 14 15 16 17 18 19 18 18 18 18 19 21 22 23 23 22 21 21 21 21 20 17 15 14 12 11 11 12 10 6 3 2 3 3 4 4 5 5 6 7 8 8 9 9 9 10 11 11 12 12 12 12 12 13 14 15 16 17 18 19 20 21 23 25 25 26 27 28 28 30 31 30 31
8 9 9 10 11 11 12 12 13 13 14 14 15 16 16 17 17 18 18 17 17 18 19 20 20 21 22 23 23 22 22 21 19 17 17 16 14 12 11 12 12 10 8 6 6 6 6 7 7 7 8 9 9 9 9 10 10 10 11 11 11 12 11 11 12 14 14 15 16 17 18 20 21 23 24 26 28 28 29 30 30 30 30 30 32
9 9 10 10 11 11 12 13 13 14 14 15 16 16 17 17 16 16 17 17 17 17 18 18 18 18 20 22 22 22 21 20 18 17 18 17 17 15 14 13 14 14 13 11 9 9 9 9 9 9 9 10 10 10 10 10 10 10 11 11 11 11 11 12 13 14 15 16 16 17 18 19 21 23 24 26 28 30 31 32 32 32 31 30 31
9 10 10 10 11 11 12 13 13 14 15 15 16 17 17 17 16 15 14 15 17 17 17 16 16 16 18 20 20 21 22 21 19 18 17 18 18 18 16 15 15 15 15 13 12 12 12 11 11 11 10 11 11 10 11 11 11 11 12 12 12 11 12 13 14 15 16 17 17 18 18 19 20 22 24 26 28 30 33 34 34 34 33 32 31
10 10 10 10 11 12 13 14 14 15 16 16 16 17 17 17 17 16 14 13 14 15 16 16 15 15 16 17 19 19 20 20 20 19 18 18 19 19 18 18 17 17 17 16 15 15 14 13 13 12 12 11 11 11 11 12 11 12 13 13 13 13 13 14 15 16 16 17 18 18 19 19 20 22 25 26 27 30 32 34 35 34 33 32 33
9 10 11 11 12 12 13 14 15 16 16 16 17 17 17 17 18 17 16 14 12 12 14 15 15 14 15 15 16 17 17 17 18 18 17 18 18 18 18 18 18 18 18 18 17 16 16 16 15 14 13 12 11 11 12 12 12 12 13 13 14 15 14 15 16 16 16 17 18 18 19 20 20 22 25 27 29 31 32 33 34 33 31 31 33
9 10 11 12 12 13 13 13 14 15 16 16 17 17 18 17 17 17 17 16 15 14 15 15 15 15 15 15 15 15 15 14 15 16 16 16 16 17 17 19 19 19 19 19 19 18 18 17 16 15 13 12 11 12 13 12 12 12 13 14 15 16 16 16 16 17 18 18 18 19 20 20 21 22 25 27 29 31 33 34 33 33 32 32 33
9 10 11 12 12 13 13 13 14 15 15 16 16 16 17 17 17 17 17 17 17 16 16 15 15 16 15 16 16 15 14 13 14 14 14 14 14 16 19 21 22 21 21 21 20 20 19 18 16 14 12 12 11 12 12 13 12 12 13 15 16 17 17 17 17 18 19 19 19 20 21 21 23 23 24 27 30 31 33 33 33 32 33 33 32
9 10 11 12 12 13 13 13 14 14 14 15 15 15 16 16 17 17 17 17 17 17 16 16 16 16 16 16 16 16 14 13 13 13 13 13 14 17 21 22 22 22 22 21 21 20 19 18 16 14 13 12 12 12 13 13 13 13 14 15 16 17 18 18 18 19 20 20 21 21 22 23 24 25 25 28 31 32 32 33 33 34 35 34 32
9 10 10 11 12 12 13 13 13 13 14 14 14 15 15 16 16 17 17 17 17 17 16 16 16 17 18 17 16 15 14 13 13 14 14 14 16 19 21 22 21 21 21 20 19 18 18 16 14 13 12 12 12 13 13 13 14 15 15 16 17 17 18 19 19 19 20 21 22 22 23 25 25 26 26 28 30 32 33 33 33 34 37 36 33
9 10 10 11 11 12 12 13 13 13 13 14 14 15 15 15 16 16 17 17 16 17 17 17 17 18 18 17 16 15 14 15 16 17 17 17 18 20 21 22 21 21 20 19 18 17 16 15 13 12 12 12 13 13 14 14 14 15 15 16 18 18 18 19 20 20 21 22 23 23 25 26 27 27 28 29 30 31 33 34 35 34 34 35 36
8 9 10 10 11 11 12 12 13 13 13 14 14 15 15 16 16 16 16 16 16 16 17 17 18 19 18 17 16 15 16 17 19 19 19 20 20 21 21 22 21 21 20 18 17 16 15 13 12 12 12 13 13 13 14 14 14 15 16 17 18 19 19 20 21 21 22 23 24 25 26 27 28 29 29 30 31 31 32 35 37 36 34 34 36
8 9 9 9 10 11 12 13 13 13 14 14 15 15 16 16 16 16 16 16 16 16 16 17 18 18 18 18 17 16 17 18 19 20 20 21 21 21 22 21 21 20 19 17 16 14 13 12 12 12 13 13 14 13 13 14 14 15 16 17 18 20 20 20 21 22 23 23 25 26 27 28 28 29 31 32 32 33 34 36 37 36 35 35 35
7 8 8 9 9 11 12 13 13 14 14 15 15 15 16 16 15 16 16 16 16 16 16 16 17 17 18 18 17 17 17 18 19 20 20 20 21 21 21 21 20 19 17 16 14 13 12 12 12 13 13 13 13 13 13 14 14 15 16 17 18 20 21 21 21 22 23 25 26 27 28 29 29 30 31 33 34 35 37 37 36 36 36 36 36
7 7 8 8 9 10 12 13 14 14 14 15 15 16 16 15 15 15 16 16 16 16 15 15 16 16 16 17 17 18 18 19 20 20 21 20 20 20 20 19 18 17 16 15 13 12 12 13 13 13 13 13 12 13 14 14 15 16 17 18 19 20 21 22 22 22 23 26 27 27 28 29 30 31 33 34 35 37 37 37 36 36 36 36 37
6 6 7 8 9 10 11 12 13 14 14 15 15 15 15 15 15 15 15 15 15 15 15 15 15 15 15 16 16 18 19 20 21 22 22 21 21 20 18 17 16 14 14 13 12 12 13 14 13 13 13 12 13 14 14 14 15 16 17 18 20 21 21 22 23 23 24 26 27 28 29 30 31 32 34 35 36 37 37 37 36 37 37 37 37
6 6 7 8 9 10 11 12 13 14 14 14 14 14 14 14 15 14 14 14 14 15 15 15 15 16 16 15 16 17 19 20 21 22 22 22 21 19 17 15 14 13 12 12 12 13 14 14 13 13 13 13 13 14 14 14 15 16 17 19 20 21 22 22 23 24 25 26 27 29 30 31 32 34 35 36 36 36 37 38 37 37 38 38 37
5 6 7 8 9 10 10 11 12 13 13 13 14 14 14 14 14 14 14 14 14 14 14 15 15 16 16 15 15 16 17 18 19 20 21 21 20 19 17 15 14 13 12 12 12 13 13 13 14 14 13 13 13 13 13 14 15 16 17 19 20 21 22 23 23 24 25 26 27 29 30 31 34 35 35 37 37 36 36 38 38 37 37 37 38
5 6 6 7 8 9 10 10 11 11 12 12 13 13 13 13 13 13 14 14 14 14 14 14 14 15 15 15 15 15 15 15 16 16 17 17 17 16 15 14 13 13 12 12 13 13 13 13 13 14 14 13 13 13 13 14 15 16 17 19 20 21 22 22 23 24 25 25 26 28 30 32 35 36 36 37 36 36 38 39 38 38 38 38 39
5 5 6 7 8 8 9 9 10 10 11 11 12 12 12 12 12 12 13 13 13 13 13 14 14 14 14 14 14 14 13 13 13 12 13 13 12 12 11 11 11 11 12 12 13 13 13 12 13 13 14 14 13 14 14 15 15 16 18 19 20 21 22 22 23 24 25 25 27 29 30 32 35 35 36 37 37 37 39 39 38 39 39 39 40
5 5 6 7 7 7 8 8 9 9 10 10 10 11 11 11 12 12 12 12 13 13 13 13 13 13 14 14 13 13 12 12 11 10 10 9 9 8 8 9 10 11 12 12 11 11 12 12 13 13 13 14 14 14 15 15 16 17 18 19 20 20 22 23 24 25 25 26 28 29 30 33 35 35 36 37 37 38 38 39 39 40 40 39 41
4 5 5 6 6 7 7 8 8 9 9 9 10 10 10 11 11 11 11 12 12 12 12 13 13 13 13 14 13 13 12 11 10 9 9 8 8 8 8 9 10 10 11 11 11 11 12 12 12 13 13 14 14 14 15 16 17 18 18 19 20 21 22 23 24 25 25 26 28 29 31 32 34 35 36 38 38 38 38 39 39 40 40 39 40
4 5 5 6 6 6 7 8 8 8 8 8 9 9 10 10 11 11 11 11 11 11 12 12 12 12 13 13 13 12 12 10 9 9 8 8 8 8 9 10 10 10 11 11 11 11 12 12 12 13 13 14 14 15 15 16 17 18 19 20 20 21 23 23 24 25 26 26 28 30 31 32 33 35 37 38 38 38 39 39 39 40 40 39 39
Wind_Direction
347 352 355 360 3 8 13 11 6 2 358 356 357 360 360 358 358 356 356 355 352 352 355 357 355 353 353 352 353 353 353 354 355 354 354 356 358 0 0 359 1 7 12 16 26 29 28 37 45 50 53 53 65 73 76 84 89 102 110 116 126 142 150 135 121 108 116 142 144 121 97 313 336 1 9 360 351 347 344 343 341 338 334 330 329
337 344 350 355 359 6 12 9 3 358 355 353 353 354 355 354 354 354 355 353 351 351 354 356 355 352 352 351 351 352 352 353 352 352 354 355 359 3 4 6 8 14 23 31 44 49 49 57 61 63 65 68 79 80 77 83 84 91 106 114 127 135 141 136 129 123 125 135 134 121 86 351 1 11 7 1 355 349 345 342 340 339 337 334 330
324 333 341 348 356 5 8 6 1 356 353 350 348 348 349 351 351 351 353 352 351 352 354 356 354 352 351 350 350 351 351 351 351 352 355 357 1 7 9 12 17 25 39 49 57 63 64 66 67 68 70 72 78 76 72 76 78 85 93 99 118 119 116 132 136 130 128 130 129 124 86 2 14 17 7 2 359 352 347 343 341 342 339 336 330
309 318 329 338 347 356 0 0 358 354 351 348 343 342 343 347 348 348 350 350 350 352 354 356 354 352 351 349 349 351 349 350 352 354 358 1 3 12 18 25 34 45 58 66 70 72 71 72 71 69 71 75 75 72 71 71 73 80 85 87 96 98 97 102 119 143 140 131 124 130 89 23 18 12 6 5 360 355 353 345 338 338 342 342 334
293 305 318 328 335 342 347 352 354 352 349 343 339 338 340 343 345 346 347 348 349 352 353 354 354 352 351 349 348 348 348 350 354 356 360 5 11 19 29 39 54 65 72 77 80 78 76 76 74 71 73 76 75 72 70 71 73 77 79 80 84 87 92 90 98 138 142 129 119 120 83 44 25 8 5 4 358 355 355 350 345 343 343 346 340
283 295 308 317 324 329 333 340 349 349 344 337 333 333 335 338 341 342 345 346 347 350 352 351 352 350 348 347 345 345 347 350 354 358 3 10 19 29 43 58 72 81 84 86 87 85 83 81 77 75 75 75 75 73 71 72 74 75 75 76 79 83 89 95 106 122 125 118 114 103 79 57 32 18 12 6 1 358 354 351 354 353 349 350 350
276 284 294 303 309 314 320 326 336 343 339 330 326 328 331 335 339 341 345 347 346 348 350 348 348 347 345 343 342 343 347 351 356 2 9 17 28 43 64 79 90 96 95 94 93 89 89 88 85 82 77 75 76 74 72 72 73 74 75 77 82 87 91 97 105 109 106 105 99 84 71 51 32 25 16 10 10 7 1 354 349 351 354 356 358
267 273 279 287 293 297 305 311 316 332 337 329 322 325 331 335 340 343 345 346 345 345 346 345 345 345 343 342 342 345 349 355 3 9 15 23 38 62 85 98 103 105 104 101 100 98 96 94 91 86 81 79 77 73 71 70 72 76 75 76 81 86 93 97 98 98 97 93 84 71 60 42 28 21 15 15 13 5 2 356 346 345 351 356 4
258 262 267 274 281 288 296 302 303 317 333 330 321 323 331 337 340 342 344 344 343 343 342 343 344 343 344 344 344 349 354 2 14 24 28 31 50 88 106 112 111 111 111 110 109 107 105 101 97 92 88 85 81 78 78 76 78 81 78 76 76 80 90 93 89 90 90 82 74 62 50 38 26 18 15 15 7 355 354 353 347 344 347 352 4
252 255 261 267 273 283 291 296 296 303 319 323 319 320 330 336 337 339 341 341 340 341 341 342 344 342 343 345 346 352 1 11 30 41 42 43 65 113 124 124 121 118 117 118 116 112 108 105 103 100 96 92 87 84 84 83 83 84 83 80 74 74 83 88 85 85 84 78 69 55 49 39 24 17 12 4 357 352 351 350 346 344 346 350 353
248 251 257 263 269 279 286 289 292 297 305 310 313 318 325 331 333 334 336 336 337 340 340 339 340 338 335 338 349 3 20 50 66 56 44 52 89 137 137 133 129 125 123 123 120 114 109 105 103 99 93 88 87 84 84 83 82 83 84 84 80 77 78 83 83 79 74 72 63 50 45 34 20 15 4 354 352 349 347 346 343 341 345 346 335
246 248 254 260 266 273 280 284 290 295 300 303 307 313 319 324 328 329 330 331 333 337 339 335 327 325 315 312 324 150 111 95 99 67 11 36 113 157 149 143 136 131 129 127 123 117 112 108 104 101 93 87 85 84 84 85 84 83 83 84 84 83 79 79 79 73 68 68 59 46 34 20 13 8 357 350 346 342 340 341 340 337 336 330 314
242 246 252 258 264 269 274 281 289 292 295 299 300 304 312 317 321 324 324 327 330 330 331 321 302 290 266 264 189 160 130 114 124 165 331 25 142 173 161 154 145 138 134 130 127 122 117 114 110 103 97 91 86 85 86 86 85 84 83 83 82 82 80 75 69 63 60 57 52 42 25 11 4 359 353 345 337 335 335 336 338 333 328 321 313
241 247 252 258 263 267 272 278 286 290 291 292 292 295 304 310 315 319 319 322 325 322 316 298 274 250 233 204 167 154 134 123 134 165 183 168 196 175 169 167 154 145 140 134 133 127 120 117 113 104 99 94 87 85 85 84 84 83 82 80 77 78 82 74 60 48 42 43 39 28 14 7 360 352 345 336 330 331 332 332 334 330 324 320 317
244 249 254 260 264 267 274 279 284 288 287 286 287 289 296 304 309 312 314 316 315 308 291 266 244 224 204 176 158 146 133 128 138 157 164 192 223 171 175 178 163 155 149 143 142 135 124 115 110 107 103 95 86 81 78 76 78 80 78 73 69 71 77 71 56 38 24 26 23 12 5 4 1 352 340 329 324 327 329 329 328 325 321 322 323
251 255 259 264 266 269 275 278 281 285 284 282 283 285 291 297 299 301 305 307 304 289 258 235 215 197 181 164 152 141 134 135 149 160 172 221 255 185 185 182 172 167 160 155 153 144 134 123 116 113 106 99 92 81 70 62 56 56 60 58 53 54 60 70 71 55 33 26 16 0 345 335 335 336 330 320 316 323 328 325 324 324 325 328 330
259 263 265 267 267 269 272 274 279 282 281 282 284 284 284 284 284 290 296 293 286 266 236 216 197 186 176 162 153 146 142 147 157 168 196 260 263 199 196 185 180 176 165 163 161 152 144 135 128 124 117 114 105 87 66 48 37 31 32 36 32 35 51 67 85 77 355 330 315 311 311 311 309 307 306 305 309 319 326 324 327 331 335 338 333
267 269 272 272 268 267 267 271 276 278 281 286 286 280 276 273 275 280 282 278 267 246 224 206 193 188 178 166 160 154 151 158 166 182 228 272 244 206 203 189 185 181 172 170 167 162 159 149 143 141 134 132 117 87 38 6 7 3 359 8 9 24 62 53 12 326 311 310 306 306 309 309 308 308 306 304 310 320 327 330 333 335 337 341 328
279 279 279 274 267 265 266 270 274 278 284 288 283 276 269 265 266 266 263 260 248 232 219 203 194 191 183 175 173 170 167 172 181 203 248 267 219 204 202 194 193 188 181 179 174 173 174 162 157 153 142 140 120 79 325 311 319 327 330 338 343 355 20 358 349 343 332 328 324 322 321 318 317 318 317 317 321 323 328 332 332 332 333 333 329
284 283 281 274 268 265 265 269 275 280 285 286 279 270 261 255 254 251 248 244 235 226 217 203 196 194 190 186 185 185 185 187 192 210 245 248 202 190 195 199 203 197 190 188 185 185 181 172 167 152 134 127 95 57 339 294 283 294 314 321 324 341 353 346 347 346 340 338 336 331 329 324 323 323 318 318 320 321 327 330 327 328 327 324 324
285 284 282 277 270 266 265 269 275 279 280 279 271 260 253 249 247 244 239 235 228 221 212 204 199 196 193 193 190 190 196 202 200 208 233 226 187 183 189 193 206 211 202 196 196 194 185 171 161 148 135 114 80 66 33 271 270 306 325 324 325 339 342 338 339 338 334 335 333 329 324 317 313 312 309 311 316 319 324 325 321 321 320 318 319
290 286 282 277 270 265 263 265 269 272 272 269 262 254 245 240 240 238 233 230 225 218 210 204 200 196 193 194 193 193 201 213 215 216 224 208 186 180 179 179 194 211 214 214 209 200 190 173 160 156 148 114 80 93 219 260 293 322 325 316 316 324 327 325 327 330 329 329 326 322 318 310 306 305 305 311 318 320 320 319 318 319 317 316 313
293 286 280 275 267 261 259 260 262 264 265 262 257 247 238 233 232 231 228 225 222 216 210 204 199 197 194 193 195 200 207 217 222 219 207 194 189 183 176 176 183 188 204 227 219 202 195 181 170 170 166 148 136 221 241 273 299 300 297 299 303 309 313 315 321 326 326 323 320 319 320 320 320 320 319 320 324 324 323 321 321 321 319 316 313
292 284 278 270 261 256 253 254 256 257 256 254 247 237 231 229 228 227 225 223 219 214 209 204 200 199 197 195 196 201 207 213 217 211 202 194 191 189 184 179 179 180 180 193 203 204 205 196 195 197 195 205 232 251 267 288 297 300 301 301 302 305 309 315 321 323 322 320 319 323 328 330 330 331 329 329 331 330 327 325 325 325 322 319 317
292 285 276 267 258 251 249 250 252 253 251 249 243 235 229 226 223 223 222 220 218 214 210 206 204 202 202 201 199 199 204 209 208 203 201 198 195 197 193 182 179 177 171 171 184 202 218 225 230 228 226 235 251 266 279 288 295 300 302 301 302 305 309 314 319 320 319 320 322 326 330 331 331 332 329 328 332 331 327 326 327 329 329 325 323
291 283 273 264 254 247 246 246 247 248 247 245 243 239 234 229 226 223 220 219 219 217 213 209 207 206 206 207 204 201 203 208 208 203 200 200 202 203 195 184 181 176 166 167 183 203 230 245 249 248 247 252 261 269 279 287 293 296 298 299 301 305 309 313 318 318 318 320 323 325 328 329 329 329 327 326 330 332 330 330 331 333 333 330 327
287 280 271 263 253 248 247 246 246 245 243 241 239 237 234 232 228 224 221 218 217 216 216 213 210 209 211 211 208 206 207 210 210 206 203 205 209 208 199 192 186 177 164 154 162 216 254 260 257 257 257 263 271 278 284 289 290 292 294 296 298 302 306 311 315 317 317 319 321 323 325 326 325 327 326 325 330 334 334 333 332 332 334 331 327
282 277 269 262 256 252 250 248 247 246 243 240 238 235 233 231 230 229 228 225 221 219 218 217 216 215 214 213 210 208 209 212 213 213 213 214 214 212 208 203 196 184 172 144 42 344 315 294 279 274 273 275 280 284 287 288 289 290 292 293 295 300 306 310 314 315 315 317 319 321 322 323 324 327 327 327 331 335 335 334 332 331 332 330 325
277 273 267 261 258 254 250 248 246 245 244 242 241 241 239 237 237 237 237 237 236 234 230 228 226 223 221 220 217 213 214 219 221 222 225 228 228 228 224 218 214 211 224 275 315 324 322 314 301 293 290 288 288 289 291 291 291 290 289 290 293 298 303 307 309 311 313 316 318 319 321 323 325 328 328 328 330 333 333 332 331 329 328 326 320
274 269 264 261 256 252 249 248 245 244 243 242 242 242 242 243 244 245 244 243 243 243 241 240 239 234 230 229 228 226 229 233 232 229 230 234 237 240 239 233 230 233 247 269 288 299 307 310 306 300 297 296 295 294 293 291 289 287 284 286 290 296 300 303 306 310 314 316 317 319 322 324 325 327 328 328 328 330 330 329 328 326 325 322 317
270 267 265 263 258 254 252 249 245 243 242 242 242 241 241 241 242 245 247 246 243 242 242 242 243 242 239 237 235 234 236 239 238 234 233 235 237 239 241 239 236 240 250 264 277 287 294 301 303 302 299 296 295 294 290 288 287 284 284 287 292 297 301 302 306 310 313 315 317 319 321 323 324 325 326 326 325 326 326 326 325 324 322 320 316
269 270 270 267 262 258 255 251 247 243 241 240 239 239 239 238 237 238 242 245 245 243 240 237 237 239 243 243 241 237 235 238 240 238 236 236 238 240 242 242 241 243 248 257 267 276 284 292 298 299 296 293 291 291 288 288 288 288 291 295 298 302 305 306 308 312 314 316 318 319 321 323 323 322 322 323 323 322 321 322 323 322 321 319 317
272 272 271 268 264 260 255 250 246 243 242 240 238 237 237 236 235 233 232 237 245 244 239 235 232 231 236 243 245 242 240 240 242 242 239 238 239 241 242 243 244 244 247 252 261 269 276 284 289 291 291 288 287 287 286 288 290 291 293 298 302 306 308 308 309 312 314 315 317 318 320 321 321 320 320 320 319 318 317 318 320 320 319 319 318
271 269 268 267 264 260 256 251 248 246 245 244 241 240 239 238 238 236 231 229 232 234 232 231 228 226 229 235 239 243 243 242 242 244 243 240 240 241 243 243 242 243 247 252 258 264 270 276 281 285 286 285 285 286 287 289 290 291 292 297 301 305 307 307 308 311 313 314 316 317 318 319 320 320 319 318 317 316 315 316 317 318 318 317 315
267 264 263 263 262 260 258 255 251 250 248 246 245 244 243 240 238 236 233 230 228 227 228 227 222 221 224 227 230 237 241 240 240 241 241 240 239 238 236 233 232 234 240 247 254 261 266 272 279 284 284 281 282 286 288 288 290 291 294 297 300 303 305 307 309 311 313 315 316 317 318 318 320 320 317 315 314 313 313 314 315 316 315 314 311
270 265 263 262 262 262 260 257 256 254 253 252 250 247 245 242 239 236 235 234 232 232 232 229 223 220 223 225 227 231 236 237 237 237 237 236 232 228 227 226 228 232 237 244 252 259 265 271 278 283 282 281 282 286 287 288 290 292 295 299 302 304 306 309 311 312 314 315 317 318 318 318 318 319 316 313 312 311 311 313 314 314 313 311 309
277 273 270 268 267 266 262 260 259 257 256 255 252 247 244 242 240 238 236 234 233 233 233 231 225 221 221 223 225 227 231 234 233 233 235 231 224 223 227 231 234 237 241 246 253 259 265 272 278 280 280 282 284 285 286 288 290 293 296 298 301 304 306 309 312 313 314 316 317 317 317 316 316 317 315 312 311 312 312 313 314 313 312 311 308
280 278 275 273 271 267 263 261 260 257 255 253 250 248 245 242 241 240 237 235 234 232 230 228 225 222 221 223 224 226 226 225 224 225 226 223 219 221 228 234 238 242 246 251 256 261 267 272 276 276 278 282 284 284 286 287 289 292 296 298 300 304 306 309 311 312 313 315 315 316 315 314 314 315 314 311 310 312 313 314 313 312 312 312 310
284 282 278 273 269 265 262 262 260 256 254 251 248 247 245 242 241 240 237 235 234 231 229 228 227 225 225 226 226 225 220 216 217 218 219 219 221 223 229 235 239 243 248 253 258 262 267 271 274 276 279 282 282 283 285 287 289 293 296 298 301 304 307 308 310 312 313 315 315 314 313 312 313 315 314 312 312 313 313 313 313 310 309 309 309
287 285 280 273 266 263 261 260 258 255 253 252 250 247 244 242 242 241 239 237 235 232 231 231 230 230 230 230 229 226 221 219 221 222 221 222 224 226 230 236 240 245 250 256 260 265 270 273 275 277 277 277 279 282 284 287 290 293 296 299 302 304 307 309 310 312 314 314 313 312 311 312 314 315 315 314 314 314 313 312 312 311 308 307 307
287 285 281 275 268 263 259 257 256 257 256 254 252 249 246 245 245 243 242 240 238 236 236 236 235 236 236 235 233 232 230 229 230 230 229 228 229 231 236 240 245 250 256 261 265 269 272 273 274 273 272 275 279 283 284 287 291 293 296 299 301 304 306 309 310 312 313 313 311 311 311 313 315 315 315 316 316 315 313 312 311 311 310 309 308
286 286 286 281 272 264 261 259 260 260 258 255 254 251 250 249 248 246 244 243 242 241 240 241 241 241 238 237 236 234 234 236 236 236 236 237 237 239 243 246 250 255 261 265 268 270 270 269 268 269 272 276 280 283 285 288 292 295 297 300 302 304 306 309 311 313 313 311 309 310 312 314 315 315 315 316 316 315 314 313 312 312 311 310 309
284 287 288 285 277 270 267 266 264 261 258 256 256 255 253 251 249 249 248 246 244 244 243 243 244 243 241 240 238 236 235 237 239 240 242 243 244 246 249 252 256 260 262 264 266 265 264 265 265 267 272 276 279 283 286 290 293 296 298 301 303 304 306 309 312 313 311 309 309 311 313 314 315 315 315 316 315 314 313 313 313 313 312 310 309
285 287 286 283 280 276 271 267 264 262 261 260 260 258 256 254 251 250 249 248 246 246 245 244 245 246 244 241 239 237 237 238 240 242 245 247 249 251 253 255 258 260 259 259 259 257 258 262 265 267 272 276 280 284 287 290 293 296 299 301 302 304 307 310 312 311 309 308 310 312 313 314 314 314 314 314 314 313 313 313 313 312 311 310 310
283 285 285 283 279 276 273 269 266 264 262 261 260 258 257 256 253 250 249 248 247 247 247 246 247 247 247 245 242 241 241 241 243 245 247 249 252 255 256 256 257 256 254 252 251 252 255 260 264 269 275 279 282 285 287 289 293 296 299 300 301 303 306 309 309 308 308 309 310 311 312 312 312 312 313 313 314 313 312 312 312 311 310 310 309
279 281 284 282 279 278 276 273 269 266 263 261 260 259 258 257 255 252 250 249 248 248 249 249 248 248 248 248 247 246 246 247 247 248 250 252 254 257 258 258 256 252 249 247 247 250 254 259 264 272 279 282 283 284 287 290 295 296 297 299 301 303 305 306 306 306 307 309 309 310 310 310 310 311 312 313 313 313 312 312 311 310 309 309 308
277 281 283 282 282 281 279 275 271 267 264 262 261 259 259 258 257 254 252 250 250 250 250 250 251 251 251 251 252 252 252 253 253 253 254 255 257 258 259 258 253 247 244 243 244 247 253 259 266 275 280 282 285 288 289 292 295 297 298 300 302 303 304 305 304 306 308 309 308 309 309 309 310 311 312 313 313 313 312 312 311 310 309 308 307
278 283 285 286 286 283 281 278 273 268 265 263 261 260 260 259 258 257 254 251 251 250 250 251 252 253 254 255 256 257 258 258 258 258 257 257 257 258 256 251 244 238 236 238 241 246 254 262 269 276 281 285 288 290 291 294 297 298 300 301 301 302 304 305 306 308 309 309 308 308 308 308 309 311 312 313 313 313 311 311 311 310 310 308 307
283 290 291 292 292 289 284 280 275 271 268 265 263 263 263 261 260 258 256 254 253 252 251 252 253 254 257 259 258 260 261 261 259 259 258 256 255 252 244 236 232 230 232 237 243 249 258 266 273 278 283 287 288 289 292 296 299 300 301 302 302 303 305 306 307 308 309 308 308 309 309 308 309 311 312 313 313 312 311 311 310 310 309 307 307
288 296 298 298 296 292 286 281 276 274 273 270 267 267 266 264 263 262 259 257 257 256 254 255 254 255 259 261 262 262 264 263 261 260 258 252 248 241 234 230 230 231 235 241 247 253 261 268 274 280 283 285 287 290 294 297 299 301 302 303 304 306 307 307 307 308 308 308 309 309 309 309 310 312 313 313 313 312 311 311 310 309 308 307 306
291 303 306 304 299 292 285 281 278 277 278 277 274 271 269 268 267 266 263 262 262 262 260 260 259 259 260 263 265 266 266 266 263 258 252 244 240 236 232 232 233 236 241 246 250 256 264 270 275 281 284 285 288 292 295 298 300 302 303 304 306 306 306 306 307 309 310 310 310 310 310 311 311 312 313 313 313 312 311 311 310 309 307 306 306